TimeMST,TemperatureF,Dew PointF,Humidity,Sea Level PressureIn,VisibilityMPH,Wind Direction,Wind SpeedMPH,Gust SpeedMPH,PrecipitationIn,Events,Conditions,WindDirDegrees,DateUTC
12:53 AM,3.0,-4.0,73,30.68,10.0,South,3.5,-,N/A,,Overcast,180,2014-01-06 07:53:00
1:53 AM,3.9,-2.9,73,30.65,10.0,Calm,Calm,-,N/A,,Overcast,0,2014-01-06 08:53:00
2:53 AM,5.0,-2.9,70,30.66,10.0,Calm,Calm,-,N/A,,Overcast,0,2014-01-06 09:53:00
3:53 AM,3.9,-2.9,73,30.66,10.0,SE,3.5,-,N/A,,Clear,140,2014-01-06 10:53:00
4:53 AM,3.0,-4.0,73,30.69,10.0,South,4.6,-,N/A,,Clear,170,2014-01-06 11:53:00
5:53 AM,1.9,-4.0,76,30.69,10.0,SSW,5.8,-,N/A,,Clear,200,2014-01-06 12:53:00
6:53 AM,3.9,-2.9,73,30.68,10.0,South,5.8,-,N/A,,Clear,180,2014-01-06 13:53:00
7:53 AM,1.9,-5.1,72,30.70,10.0,SW,3.5,-,N/A,,Clear,230,2014-01-06 14:53:00
8:53 AM,3.9,-2.9,73,30.70,10.0,Calm,Calm,-,N/A,,Clear,0,2014-01-06 15:53:00
9:53 AM,9.0,-0.9,64,30.69,10.0,Calm,Calm,-,N/A,,Clear,0,2014-01-06 16:53:00
10:53 AM,12.9,1.9,62,30.65,10.0,Calm,Calm,-,N/A,,Clear,0,2014-01-06 17:53:00
11:53 AM,16.0,3.9,59,30.59,10.0,Calm,Calm,-,N/A,,Mostly Cloudy,0,2014-01-06 18:53:00
12:53 PM,19.0,5.0,54,30.53,10.0,Calm,Calm,-,N/A,,Clear,0,2014-01-06 19:53:00
1:53 PM,24.1,5.0,44,30.47,10.0,Calm,Calm,-,N/A,,Clear,0,2014-01-06 20:53:00
2:53 PM,28.0,7.0,41,30.42,10.0,Calm,Calm,-,N/A,,Clear,0,2014-01-06 21:53:00
3:53 PM,28.0,7.0,41,30.40,10.0,NNW,3.5,-,N/A,,Clear,340,2014-01-06 22:53:00
4:53 PM,25.0,6.1,45,30.41,10.0,Calm,Calm,-,N/A,,Clear,0,2014-01-06 23:53:00
5:53 PM,21.9,7.0,53,30.41,10.0,Calm,Calm,-,N/A,,Clear,0,2014-01-07 00:53:00
6:53 PM,21.0,9.0,60,30.39,10.0,SE,3.5,-,N/A,,Clear,140,2014-01-07 01:53:00
7:53 PM,25.0,9.0,51,30.37,10.0,SSW,3.5,-,N/A,,Clear,200,2014-01-07 02:53:00
8:53 PM,25.0,10.9,55,30.34,10.0,South,10.4,-,N/A,,Clear,190,2014-01-07 03:53:00
9:53 PM,25.0,9.0,51,30.31,10.0,SW,15.0,-,N/A,,Clear,220,2014-01-07 04:53:00
10:53 PM,26.1,9.0,49,30.26,10.0,SW,16.1,-,N/A,,Clear,220,2014-01-07 05:53:00
11:53 PM,25.0,9.0,51,30.24,10.0,SSW,15.0,-,N/A,,Clear,210,2014-01-07 06:53:00